When you browse on this site, cookies collect data to enhance your experience and personalize the content and advertising you see.
Visit our Privacy Policy to learn more. By continuing to use the site, you agree to this use of cookies and data.

Hourly Weather Diego de Almagro

Today, 2 July, Thursday

Time Temperature Precipitation Wind Pressure Humidity
00:00 +9°C° 0 mm 0 mps 677 mmHg 59%
01:00 +9°C° 0 mm 0 mps 677 mmHg 59%
02:00 +9°C° 0 mm 0 mps 677 mmHg 58%
03:00 +9°C° 0 mm 0 mps 677 mmHg 57%
04:00 +8°C° 0 mm 0 mps 677 mmHg 56%
05:00 +10°C° 0 mm 1 mps 677 mmHg 48%
06:00 +11°C° 0 mm 1 mps 677 mmHg 39%
07:00 +11°C° 0 mm 1 mps 678 mmHg 30%
08:00 +16°C° 0 mm 1 mps 679 mmHg 24%
09:00 +21°C° 0 mm 1 mps 680 mmHg 17%
10:00 +25°C° 0 mm 1 mps 680 mmHg 11%
11:00 +26°C° 0 mm 2 mps 680 mmHg 11%
12:00 +27°C° 0 mm 3 mps 680 mmHg 11%
13:00 +28°C° 0 mm 3 mps 679 mmHg 11%
14:00 +27°C° 0 mm 3 mps 679 mmHg 14%
15:00 +25°C° 0 mm 3 mps 679 mmHg 17%
16:00 +24°C° 0 mm 3 mps 679 mmHg 21%
17:00 +19°C° 0 mm 2 mps 678 mmHg 35%
18:00 +15°C° 0 mm 1 mps 677 mmHg 50%
19:00 +10°C° 0 mm 0 mps 677 mmHg 65%
20:00 +10°C° 0 mm 0 mps 677 mmHg 63%
21:00 +11°C° 0 mm 1 mps 677 mmHg 61%
22:00 +11°C° 0 mm 1 mps 678 mmHg 59%
23:00 +11°C° 0 mm 1 mps 677 mmHg 58%

Tomorrow, 3 July, Friday

Time Temperature Precipitation Wind Pressure Humidity
00:00 +11°C° 0 mm 1 mps 677 mmHg 57%
01:00 +11°C° 0 mm 1 mps 677 mmHg 55%
02:00 +11°C° 0 mm 1 mps 677 mmHg 54%
03:00 +10°C° 0 mm 1 mps 677 mmHg 53%
04:00 +10°C° 0 mm 1 mps 677 mmHg 53%
05:00 +11°C° 0 mm 1 mps 677 mmHg 43%
06:00 +11°C° 0 mm 1 mps 678 mmHg 34%
07:00 +12°C° 0 mm 1 mps 678 mmHg 25%
08:00 +16°C° 0 mm 1 mps 679 mmHg 20%
09:00 +22°C° 0 mm 1 mps 680 mmHg 14%
10:00 +26°C° 0 mm 1 mps 681 mmHg 9%
11:00 +27°C° 0 mm 2 mps 681 mmHg 9%
12:00 +28°C° 0 mm 2 mps 681 mmHg 8%
13:00 +29°C° 0 mm 3 mps 680 mmHg 8%
14:00 +28°C° 0 mm 3 mps 680 mmHg 11%
15:00 +27°C° 0 mm 3 mps 680 mmHg 14%
16:00 +26°C° 0 mm 4 mps 679 mmHg 16%
17:00 +21°C° 0 mm 2 mps 678 mmHg 32%
18:00 +16°C° 0 mm 1 mps 678 mmHg 48%
19:00 +11°C° 0 mm 0 mps 677 mmHg 63%
20:00 +10°C° 0 mm 0 mps 677 mmHg 63%
21:00 +10°C° 0 mm 0 mps 677 mmHg 62%
22:00 +10°C° 0 mm 0 mps 677 mmHg 61%
23:00 +9°C° 0 mm 0 mps 677 mmHg 60%

Day after tomorrow, 4 July, Saturday

Time Temperature Precipitation Wind Pressure Humidity
00:00 +9°C° 0 mm 0 mps 677 mmHg 60%
01:00 +9°C° 0 mm 0 mps 677 mmHg 59%
02:00 +8°C° 0 mm 0 mps 676 mmHg 59%
03:00 +8°C° 0 mm 0 mps 676 mmHg 59%
04:00 +8°C° 0 mm 0 mps 676 mmHg 60%
05:00 +8°C° 0 mm 0 mps 677 mmHg 55%
06:00 +8°C° 0 mm 0 mps 677 mmHg 51%
07:00 +9°C° 0 mm 0 mps 677 mmHg 46%
08:00 +14°C° 0 mm 1 mps 678 mmHg 37%
09:00 +19°C° 0 mm 1 mps 680 mmHg 27%
10:00 +23°C° 0 mm 2 mps 681 mmHg 18%
11:00 +24°C° 0 mm 3 mps 681 mmHg 18%
12:00 +24°C° 0 mm 3 mps 680 mmHg 18%
13:00 +25°C° 0 mm 4 mps 680 mmHg 18%
14:00 +23°C° 0 mm 4 mps 680 mmHg 21%
15:00 +21°C° 0 mm 3 mps 680 mmHg 24%
16:00 +20°C° 0 mm 3 mps 679 mmHg 27%
17:00 +17°C° 0 mm 2 mps 679 mmHg 43%
18:00 +13°C° 0 mm 1 mps 678 mmHg 58%
19:00 +8°C° 0 mm 0 mps 678 mmHg 73%
20:00 +8°C° 0 mm 0 mps 678 mmHg 72%
21:00 +8°C° 0 mm 0 mps 678 mmHg 70%
22:00 +8°C° 0 mm 0 mps 678 mmHg 69%
23:00 +7°C° 0 mm 0 mps 678 mmHg 67%

5 July, Sunday

Time Temperature Precipitation Wind Pressure Humidity
00:00 +7°C° 0 mm 0 mps 678 mmHg 66%
01:00 +7°C° 0 mm 0 mps 677 mmHg 65%
02:00 +6°C° 0 mm 0 mps 677 mmHg 63%
03:00 +6°C° 0 mm 0 mps 677 mmHg 61%
04:00 +6°C° 0 mm 0 mps 677 mmHg 59%
05:00 +8°C° 0 mm 1 mps 677 mmHg 54%
06:00 +8°C° 0 mm 1 mps 677 mmHg 49%
07:00 +9°C° 0 mm 1 mps 678 mmHg 44%
08:00 +13°C° 0 mm 1 mps 679 mmHg 34%
09:00 +19°C° 0 mm 1 mps 680 mmHg 23%
10:00 +23°C° 0 mm 2 mps 681 mmHg 12%
11:00 +24°C° 0 mm 2 mps 680 mmHg 12%
12:00 +24°C° 0 mm 3 mps 680 mmHg 12%
13:00 +25°C° 0 mm 4 mps 679 mmHg 12%
14:00 +24°C° 0 mm 3 mps 679 mmHg 17%
15:00 +21°C° 0 mm 3 mps 679 mmHg 21%
16:00 +20°C° 0 mm 3 mps 679 mmHg 26%
17:00 +17°C° 0 mm 2 mps 678 mmHg 40%
18:00 +13°C° 0 mm 1 mps 677 mmHg 54%
19:00 +9°C° 0 mm 0 mps 676 mmHg 68%
20:00 +9°C° 0 mm 0 mps 676 mmHg 67%
21:00 +8°C° 0 mm 0 mps 676 mmHg 67%
22:00 +8°C° 0 mm 0 mps 676 mmHg 66%
23:00 +8°C° 0 mm 0 mps 675 mmHg 66%

6 July, Monday

Time Temperature Precipitation Wind Pressure Humidity
00:00 +7°C° 0 mm 0 mps 675 mmHg 67%
01:00 +7°C° 0 mm 0 mps 675 mmHg 67%
02:00 +6°C° 0 mm 0 mps 675 mmHg 67%
03:00 +6°C° 0 mm 0 mps 675 mmHg 68%
04:00 +5°C° 0 mm 0 mps 675 mmHg 68%
05:00 +6°C° 0 mm 0 mps 675 mmHg 65%
06:00 +7°C° 0 mm 1 mps 675 mmHg 61%
07:00 +8°C° 0 mm 1 mps 676 mmHg 58%
08:00 +11°C° 0 mm 1 mps 676 mmHg 47%
09:00 +14°C° 0 mm 2 mps 677 mmHg 37%
10:00 +18°C° 0 mm 3 mps 678 mmHg 27%
11:00 +18°C° 0 mm 3 mps 678 mmHg 27%
12:00 +18°C° 0 mm 4 mps 677 mmHg 27%
13:00 +19°C° 0 mm 4 mps 677 mmHg 27%
14:00 +18°C° 0 mm 4 mps 677 mmHg 30%
15:00 +17°C° 0 mm 3 mps 677 mmHg 33%
16:00 +16°C° 0 mm 3 mps 677 mmHg 36%
17:00 +13°C° 0 mm 2 mps 676 mmHg 51%
18:00 +8°C° 0 mm 2 mps 676 mmHg 67%
19:00 +6°C° 0 mm 1 mps 675 mmHg 83%
20:00 +6°C° 0 mm 1 mps 675 mmHg 86%
21:00 +5°C° 0 mm 1 mps 676 mmHg 89%
22:00 +4°C° 0 mm 0 mps 676 mmHg 92%
23:00 +4°C° 0 mm 0 mps 676 mmHg 90%

7 July, Tuesday

Time Temperature Precipitation Wind Pressure Humidity
00:00 +3°C° 0 mm 0 mps 676 mmHg 87%
01:00 +3°C° 0 mm 0 mps 676 mmHg 84%
02:00 +2°C° 0 mm 0 mps 676 mmHg 85%
03:00 +3°C° 0 mm 1 mps 676 mmHg 85%
04:00 +2°C° 0 mm 1 mps 676 mmHg 85%
05:00 +2°C° 0 mm 1 mps 676 mmHg 83%
06:00 +2°C° 0 mm 0 mps 677 mmHg 81%
07:00 +2°C° 0 mm 0 mps 678 mmHg 79%
08:00 +7°C° 0 mm 1 mps 678 mmHg 62%
09:00 +11°C° 0 mm 1 mps 679 mmHg 45%
10:00 +15°C° 0 mm 1 mps 680 mmHg 29%
11:00 +16°C° 0 mm 2 mps 679 mmHg 23%
12:00 +17°C° 0 mm 2 mps 679 mmHg 18%
13:00 +18°C° 0 mm 3 mps 679 mmHg 12%
14:00 +18°C° 0 mm 3 mps 679 mmHg 15%
15:00 +17°C° 0 mm 3 mps 679 mmHg 18%
16:00 +16°C° 0 mm 3 mps 679 mmHg 21%
17:00 +12°C° 0 mm 2 mps 678 mmHg 38%
18:00 +9°C° 0 mm 1 mps 677 mmHg 55%
19:00 +4°C° 0 mm 0 mps 676 mmHg 72%
20:00 +4°C° 0 mm 0 mps 676 mmHg 69%
21:00 +4°C° 0 mm 0 mps 677 mmHg 67%
22:00 +5°C° 0 mm 1 mps 677 mmHg 65%
23:00 +4°C° 0 mm 1 mps 676 mmHg 65%
Show more